Probability
0 0 0 0 0 0 0 0 2 4 6 7 10 13 19 26 28 30 33 40 50 58 61 63 66 71 71 68 67 69 69 67 66 63 62 59 53 49 45 41 38 39 39 38
0 0 0 0 0 0 0 1 3 5 7 9 11 16 22 28 30 31 33 37 46 56 61 64 67 69 69 67 67 68 68 66 65 64 62 58 54 52 50 45 40 38 38 36
0 0 0 0 1 1 1 2 4 6 8 11 14 20 27 32 35 36 37 41 47 53 58 61 64 67 66 64 65 66 66 64 63 63 61 58 56 55 55 50 42 37 36 35
0 0 1 1 2 3 3 5 6 7 8 10 13 19 28 35 40 43 44 46 48 50 52 54 59 62 63 62 63 64 63 61 61 60 60 60 59 57 57 52 44 38 35 33
1 1 2 3 3 4 4 6 8 9 10 11 11 15 23 34 43 49 50 49 48 49 52 56 59 61 61 61 62 63 63 62 61 59 60 62 60 57 55 51 45 39 33 29
2 2 2 3 4 4 5 9 12 12 14 15 15 17 24 35 46 52 53 54 54 55 59 64 66 65 63 62 62 63 64 64 63 61 61 61 57 53 51 49 45 38 30 25
3 3 3 4 6 10 14 20 23 21 19 20 21 23 30 41 48 52 53 56 59 61 65 69 71 70 68 66 64 63 64 64 63 62 59 57 54 50 46 45 42 36 27 22
5 6 10 15 19 24 31 34 32 27 23 23 23 25 31 39 44 47 49 54 59 62 65 69 71 71 70 68 65 62 60 58 57 56 53 50 49 45 42 40 37 32 26 21
10 12 18 27 33 36 37 36 31 25 22 22 24 26 28 32 35 38 42 48 54 57 60 64 66 65 64 61 58 55 52 50 49 48 46 43 41 38 35 33 31 28 24 20
16 18 22 27 30 29 28 25 22 18 17 19 23 26 25 26 30 33 35 39 43 45 48 51 53 52 50 48 47 45 43 42 41 39 36 33 29 26 24 23 23 23 20 17
18 19 21 21 21 19 17 15 13 13 15 17 20 22 21 23 27 30 30 29 31 33 34 36 38 39 38 37 36 35 35 34 33 30 27 23 18 13 12 12 13 14 14 14
16 19 19 19 18 15 14 14 12 12 15 17 18 18 18 20 24 25 24 23 23 24 25 26 28 30 31 30 30 30 30 28 26 24 22 19 14 9 6 5 5 6 7 9
16 18 19 17 15 13 13 15 14 14 15 17 17 15 15 16 18 19 18 17 16 17 19 20 22 24 25 26 26 26 26 23 21 19 19 19 16 10 5 3 3 3 3 3
14 15 15 12 10 10 11 11 11 12 14 15 13 12 10 10 11 12 11 10 11 13 15 16 16 17 19 20 21 22 20 17 16 15 15 16 14 10 5 3 3 3 2 1
9 9 8 6 6 7 7 7 8 9 10 10 9 9 8 7 7 7 6 6 7 9 12 13 13 14 15 15 16 16 15 13 13 12 11 10 9 6 3 3 3 3 3 3
4 5 4 3 4 6 7 7 8 8 7 7 6 7 7 7 6 6 4 3 3 5 9 11 11 11 11 11 11 13 13 11 9 7 7 5 4 2 2 3 3 3 3 3
2 3 3 3 4 5 7 8 8 7 6 5 5 5 6 7 5 4 2 1 1 2 5 7 7 8 9 9 9 11 11 9 6 5 6 5 4 3 3 3 3 3 3 3
2 2 2 3 4 5 6 7 6 5 4 4 3 3 4 5 4 3 1 0 0 1 2 3 4 5 6 6 6 8 10 8 6 6 7 7 5 3 3 3 3 3 3 3
3 3 3 4 4 4 5 5 5 4 3 3 2 2 4 4 4 3 2 2 1 1 2 2 2 3 3 3 4 5 7 6 6 7 6 5 4 3 3 3 3 3 3 3
4 4 5 5 4 3 3 4 3 3 2 2 2 3 5 5 4 4 3 2 2 2 3 3 3 3 2 2 2 2 3 3 5 6 6 4 3 3 3 3 3 3 3 3
5 5 5 4 3 3 3 3 2 1 1 1 2 4 5 4 3 3 2 2 3 3 2 2 2 2 1 1 1 0 0 1 3 5 5 4 3 3 3 3 3 3 3 3
4 4 3 3 3 3 3 3 1 0 0 0 1 2 2 1 1 2 2 3 3 2 1 1 1 1 0 0 0 0 0 0 1 3 4 3 3 3 3 3 3 3 2 1
3 3 2 3 3 3 3 2 0 0 0 0 0 0 0 0 0 2 3 3 2 1 0 0 0 0 0 0 0 0 0 0 0 1 2 3 3 3 3 3 2 1 1 0
2 2 2 2 2 3 2 1 0 0 0 0 0 0 0 0 1 2 2 1 1 0 0 0 0 0 0 0 0 0 0 0 0 1 2 3 3 3 3 2 1 0 0 0
1 2 2 2 1 2 2 1 1 0 0 0 0 0 0 0 1 2 2 1 0 0 0 0 0 0 0 0 0 0 0 0 0 1 2 2 2 2 2 1 0 0 0 0
1 2 3 1 1 1 1 0 0 0 0 0 0 0 0 0 0 1 1 0 0 0 0 0 0 0 0 0 0 0 0 0 0 1 1 1 1 1 1 0 0 0 0 0
1 3 3 1 1 1 0 0 0 0 0 0 0 0 0 0 0 0 0 0 0 0 0 0 0 0 0 0 0 0 0 0 0 0 0 0 0 0 0 0 0 0 0 0
Wind_Speed
10 8 10 12 14 15 15 14 11 8 9 7 4 4 4 5 5 4 4 4 4 3 4 4 5 5 6 7 7 7 7 7 6 6 6 5 5 4 4 4 4 3 3 2
11 10 9 12 14 15 15 15 12 9 6 4 4 4 4 4 4 3 3 3 4 4 4 4 4 5 5 6 6 6 6 6 6 5 5 5 5 5 4 3 3 3 3 2
10 9 10 12 12 12 11 11 11 9 5 2 3 3 4 4 3 3 3 3 4 4 4 3 3 4 5 6 6 6 6 6 6 6 5 5 6 5 4 4 3 3 3 3
8 8 11 8 8 9 10 9 6 4 4 3 3 3 5 4 4 4 4 4 3 3 3 2 3 4 5 6 6 6 6 6 6 5 5 4 4 4 4 3 3 2 3 3
7 8 9 7 6 6 6 5 4 5 4 4 4 4 5 6 6 5 4 4 2 2 2 2 2 3 5 6 7 6 6 5 5 5 4 4 4 4 3 3 3 2 3 3
8 8 7 5 3 4 4 4 2 3 2 1 2 2 3 5 6 5 5 4 3 3 4 4 2 2 4 5 5 5 5 5 5 4 4 4 4 3 3 3 3 3 3 3
11 10 5 2 3 3 5 2 3 2 2 2 2 4 5 6 6 6 5 5 4 4 4 4 3 3 4 4 3 3 4 4 4 4 4 4 4 4 4 4 4 4 4 4
10 10 5 1 1 1 4 5 5 4 4 5 5 6 6 6 6 6 5 5 5 4 5 4 4 4 4 4 3 4 4 4 4 4 4 4 4 4 4 4 4 4 4 4
2 1 4 7 7 6 5 6 6 5 5 4 5 5 5 5 5 5 5 6 5 5 5 5 5 5 5 4 4 4 4 4 5 5 4 5 5 4 3 3 3 3 4 3
1 3 4 6 6 6 6 6 5 4 3 3 4 5 5 5 5 4 4 5 5 6 5 6 6 5 4 4 4 5 5 5 6 6 7 7 6 5 4 3 3 3 3 3
3 2 2 3 4 5 5 4 4 4 3 4 4 4 4 4 4 4 4 4 5 5 5 6 5 5 4 4 4 5 6 6 6 6 7 8 8 8 7 6 4 3 4 4
3 1 1 1 2 2 2 3 4 5 5 5 5 5 5 4 4 4 4 5 5 6 6 6 5 5 5 4 3 5 5 5 5 5 6 7 8 9 14 11 13 14 12 8
1 1 1 1 1 2 3 3 4 4 4 5 5 4 4 4 4 5 5 5 6 6 6 6 6 6 5 4 4 4 5 5 5 5 5 6 6 7 7 8 13 14 13 12
2 2 1 0 1 2 3 3 4 4 4 4 4 4 4 4 5 5 6 6 6 6 6 6 6 6 5 5 5 5 6 6 6 5 5 5 6 6 6 6 6 6 8 9
1 1 1 1 1 2 3 2 3 3 4 3 4 4 4 5 5 5 6 6 6 6 6 6 6 6 5 5 6 6 6 5 5 5 5 5 6 6 6 7 6 6 5 5
2 2 2 3 3 2 2 2 3 3 3 3 4 5 5 6 6 6 6 6 6 6 5 5 6 5 4 5 5 5 6 7 6 5 6 6 6 6 6 6 6 5 5 4
4 4 4 3 3 3 2 2 2 3 3 4 5 5 6 6 7 7 6 6 6 5 5 5 5 4 4 4 4 5 5 6 7 6 6 6 6 5 6 6 6 6 6 5
4 3 3 3 2 3 3 2 3 4 4 5 5 5 6 6 6 6 6 5 6 6 6 5 5 5 4 4 4 5 5 5 5 6 6 6 5 5 6 6 7 7 6 5
3 3 3 3 3 4 3 3 3 4 4 5 6 6 5 6 6 6 5 5 5 5 5 5 6 5 5 6 5 5 6 6 6 6 6 6 6 5 6 6 6 6 6 5
3 4 4 4 4 4 3 4 4 4 4 4 6 6 5 5 5 5 5 5 4 4 4 5 5 5 4 5 6 5 6 6 6 5 5 5 5 5 5 6 6 6 6 5
4 5 5 5 5 4 4 4 5 5 4 4 5 6 6 5 5 5 5 5 5 5 5 5 4 4 4 4 6 5 5 5 5 5 5 5 5 6 6 6 6 6 6 6
5 5 6 6 5 5 4 4 4 5 5 5 6 6 6 6 5 5 6 4 5 5 4 4 5 6 5 4 4 5 5 5 5 5 5 5 5 6 6 7 6 6 6 6
5 6 6 6 6 6 5 5 5 5 5 6 6 6 5 4 4 5 5 4 6 7 5 5 6 6 5 4 4 5 6 6 5 5 5 5 6 6 6 7 6 6 6 6
6 6 6 6 7 7 7 6 6 5 6 6 5 5 5 5 5 5 6 8 8 7 6 6 6 5 4 4 5 5 5 5 5 6 6 6 6 6 6 6 6 6 7 8
6 7 7 8 7 6 6 6 6 6 6 5 5 5 4 5 6 6 6 8 8 7 6 6 5 5 4 5 6 6 6 6 6 6 6 6 7 7 7 6 6 6 7 7
6 6 6 5 5 4 4 4 5 5 5 5 5 5 6 6 7 6 6 7 9 7 6 5 5 5 5 6 7 7 6 6 7 7 8 7 8 7 7 7 8 6 6 6
6 6 5 5 5 4 4 4 5 5 5 5 6 6 7 7 6 6 7 7 6 6 6 6 6 6 6 7 7 7 6 7 7 7 7 7 7 7 7 7 6 6 6 6
Wind_Direction
262 251 222 222 230 229 227 232 237 221 213 183 173 135 127 117 107 111 103 97 105 110 108 121 131 139 148 154 160 162 163 170 172 175 175 180 183 183 174 175 182 172 174 183
249 241 236 226 227 229 227 227 229 227 223 168 159 143 116 102 102 85 91 100 115 110 104 120 132 145 147 146 144 146 156 162 158 164 172 174 175 173 164 165 168 156 160 170
251 238 236 232 228 229 234 230 230 227 213 164 136 108 96 82 85 83 71 74 91 116 119 128 142 137 145 140 137 144 154 158 158 163 173 174 173 164 162 163 163 162 156 142
254 240 234 235 233 235 234 227 231 209 172 156 118 88 70 65 61 53 56 72 69 95 111 130 144 143 141 139 142 148 152 154 156 162 168 160 158 156 153 151 153 153 147 130
257 239 241 233 221 225 223 216 201 192 165 144 157 139 79 54 54 39 41 67 71 90 101 88 102 132 139 141 145 147 149 149 149 155 155 152 158 156 149 148 147 139 124 119
250 245 240 237 238 247 208 202 150 142 137 148 195 193 79 56 65 52 40 49 50 63 81 79 69 88 123 138 138 144 148 145 144 144 144 147 149 146 140 135 130 125 113 101
244 250 249 267 239 257 232 161 92 102 130 108 46 65 73 51 50 49 47 51 57 66 73 64 69 95 113 114 117 124 125 129 133 134 141 141 135 135 132 128 121 114 108 99
235 244 237 11 232 78 76 72 73 58 64 80 82 87 80 64 55 37 38 48 56 72 73 61 57 81 94 91 92 102 110 115 121 121 130 133 121 119 118 119 119 118 112 102
230 194 71 55 64 75 85 84 75 62 50 54 80 83 88 81 65 45 35 42 50 66 74 65 56 66 82 82 90 98 101 100 97 96 89 92 101 106 110 116 115 116 113 106
173 128 92 91 87 79 67 75 72 60 44 39 79 77 71 77 75 66 47 53 58 67 63 63 56 59 69 81 92 94 94 90 86 85 80 70 64 63 65 58 81 86 85 91
229 177 80 84 84 81 80 82 81 71 51 55 88 86 79 70 74 68 55 60 62 73 73 66 63 60 60 64 87 97 95 93 92 93 90 78 67 52 60 50 39 80 85 80
233 219 221 145 110 101 92 86 77 71 62 62 80 86 82 79 78 73 62 61 69 70 68 64 62 60 56 58 77 102 107 105 106 104 102 102 100 82 57 63 61 62 66 79
347 348 69 123 106 86 96 88 87 91 87 72 68 74 75 84 83 80 72 66 70 71 66 63 61 54 47 51 73 90 101 106 108 108 114 117 115 111 101 73 63 62 63 70
29 37 73 66 100 99 100 89 83 89 87 75 71 78 84 90 85 79 76 71 70 73 69 67 65 57 49 54 67 81 93 96 100 105 109 114 115 115 115 112 101 81 66 67
271 257 210 181 127 92 100 107 108 100 86 81 80 88 91 93 89 80 81 80 76 77 74 72 67 57 49 61 69 73 85 94 97 100 104 106 108 107 103 99 97 98 95 75
229 218 210 187 163 142 142 152 135 115 99 92 91 88 88 91 88 83 80 80 79 74 70 73 73 65 59 68 78 81 85 90 96 99 96 96 97 98 99 101 100 96 92 90
223 203 197 191 167 157 158 149 133 120 112 101 100 98 97 94 87 83 79 74 79 79 75 76 75 66 65 68 81 90 94 95 97 100 99 99 99 100 101 100 101 98 90 79
223 206 187 177 160 138 126 121 127 127 122 111 104 100 103 99 94 90 87 84 82 76 67 66 70 68 66 70 77 87 92 92 90 92 93 95 95 93 96 100 102 103 103 96
183 166 154 145 137 128 126 120 117 114 112 114 111 106 102 100 100 100 96 92 89 86 75 74 79 77 71 71 77 88 92 95 97 99 102 103 103 101 99 98 96 96 97 95
134 133 127 120 117 117 118 122 119 113 114 117 113 110 105 102 102 101 95 86 75 86 91 89 91 84 79 77 81 92 97 101 106 109 110 110 108 103 102 101 99 97 96 95
125 128 130 129 125 118 119 120 120 116 111 112 115 116 110 104 100 99 98 93 82 84 94 93 83 83 83 85 93 98 100 101 102 103 102 103 102 100 99 97 95 92 88 86
128 127 127 129 127 122 118 120 122 121 118 115 117 116 112 107 104 94 87 92 95 86 89 84 75 67 71 85 95 99 102 103 102 101 100 98 97 96 95 92 90 89 88 86
123 125 128 130 128 119 112 109 109 114 116 113 111 112 110 105 104 107 100 92 93 87 84 77 69 67 68 85 91 94 94 95 98 101 101 99 98 97 97 95 90 85 83 83
117 120 120 117 112 111 108 107 107 108 111 111 113 116 115 109 98 90 95 95 92 96 88 79 70 65 74 86 90 93 95 97 97 98 95 94 95 96 94 91 89 87 84 83
111 114 114 116 116 117 121 121 114 109 110 108 108 106 105 107 109 107 106 108 109 105 101 93 81 79 81 82 84 82 80 77 83 86 85 85 86 86 85 84 82 83 83 80
107 110 112 115 112 113 116 116 114 115 115 113 107 103 101 104 111 117 121 122 118 117 111 108 103 98 90 87 89 91 91 89 85 84 84 84 85 84 83 83 85 83 84 83
109 105 105 106 107 112 114 114 115 116 116 115 112 112 114 116 117 118 118 117 116 110 102 98 95 91 86 85 83 81 82 82 82 82 83 85 87 88 90 91 88 87 86 86